{"data":{"norad_id":63915,"epoch":"2026-09-20T02:47:13.754688Z","epoch_age_seconds":180257,"freshness":"STALE","line1":"1 63915U 25095AB  26263.11613142  .00014005  00000+0  51735-3 0  9996","line2":"2 63915  43.0057 158.1166 0003012 245.5843 114.4695 15.27586998 77510","mean_motion":15.27586998,"eccentricity":0.0003012,"inclination_deg":43.0057,"raan_deg":158.1166,"arg_perigee_deg":245.5843,"mean_anomaly_deg":114.4695,"bstar":0.00051735,"rev_number":7751,"period_min":94.266316870026,"perigee_km":480.96155864948,"apogee_km":485.09472453078,"semimajor_km":6861.1651415901,"source":"CELESTRAK","updated_at":"2026-09-21T09:00:35.148143Z"}}